Change the Weather History Date:

Friday, February 28, 2014

  Actual Average Record
Temperature  
Mean Temperature 39 °F -  
Max Temperature 50 °F 40 °F 64 °F (1999)
Min Temperature 28 °F 25 °F 7 °F (1984)
Degree Days  
Heating Degree Days 26    
Moisture  
Dew Point 34 °F    
Average Humidity 86    
Maximum Humidity 100    
Minimum Humidity 43    
Precipitation  
Precipitation 0.11 in - - ()
Sea Level Pressure  
Sea Level Pressure 29.76 in    
Wind  
Wind Speed 2 mph (SE)    
Max Wind Speed 12 mph    
Max Gust Speed -    
Visibility 10 miles    
Events Rain    
Averages and records for this station are not official NWS values.
T = Trace of Precipitation, MM = Missing Value Source: NWS Daily Summary

Daily Weather History Graph

Daily Weather History Graph

Search for Another Location

Airport or City:

Trip Planner

Search our weather history database for the weather conditions in past years. The results will help you decide how hot, cold, wet, or windy it might be!

Date:

Astronomy

Feb. 28, 2014 Rise Set
Actual Time 7:01 AM MST 6:17 PM MST
Civil Twilight 6:34 AM MST 6:44 PM MST
Nautical Twilight 6:03 AM MST 7:16 PM MST
Astronomical Twilight 5:31 AM MST 7:47 PM MST
Moon 6:18 AM MST 5:58 PM MST
Length of Visible Light 12h 10m
Length of Day
11h 15m
Waning Crescent, 0% of the Moon is Illuminated
Feb 28
Waning Crescent
Mar 1
New
Mar 8
First Quarter
Mar 16
Full
Mar 23
Last Quarter

Hourly Weather History & Observations

Time (MST) Temp. Windchill Dew Point Humidity Pressure Visibility Wind Dir Wind Speed Gust Speed Precip Events Conditions
12:15 AM 35.6 °F - 32.0 °F 87% 29.84 in 3.0 mi Calm Calm - N/A   Clear
12:35 AM 35.6 °F 31.7 °F 32.0 °F 87% 29.83 in 9.0 mi NW 4.6 mph - N/A   Clear
12:55 AM 33.8 °F - 33.8 °F 100% 29.83 in 7.0 mi Calm Calm - N/A   Clear
1:15 AM 35.6 °F - 32.0 °F 87% 29.83 in 10.0 mi Calm Calm - N/A   Clear
1:35 AM 33.8 °F 27.7 °F 32.0 °F 93% 29.84 in 8.0 mi SSW 6.9 mph - N/A   Clear
1:55 AM 33.8 °F - 32.0 °F 93% 29.84 in 4.0 mi Calm Calm - N/A   Clear
2:15 AM 33.8 °F - 32.0 °F 93% 29.83 in 3.0 mi Calm Calm - N/A   Clear
2:35 AM 33.8 °F - 32.0 °F 93% 29.84 in 2.0 mi Calm Calm - N/A   Clear
2:55 AM 30.2 °F - 28.4 °F 93% 29.84 in 1.2 mi Calm Calm - N/A   Clear
3:15 AM 30.2 °F - 30.2 °F 100% 29.84 in 1.8 mi Calm Calm - N/A   Clear
3:35 AM 30.2 °F - 30.2 °F 100% 29.84 in 0.2 mi Calm Calm - N/A   Unknown
3:55 AM 30.2 °F 26.7 °F 28.4 °F 93% 29.84 in 1.5 mi East 3.5 mph - N/A   Clear
4:15 AM 30.2 °F - 30.2 °F 100% 29.84 in 3.0 mi Calm Calm - N/A   Partly Cloudy
4:35 AM 33.8 °F - 33.8 °F 100% 29.85 in 9.0 mi Calm Calm - N/A   Partly Cloudy
4:55 AM 33.8 °F - 32.0 °F 93% 29.85 in 10.0 mi Calm Calm - N/A   Mostly Cloudy
5:15 AM 32.0 °F - 30.2 °F 93% 29.84 in 10.0 mi Calm Calm - N/A   Partly Cloudy
5:35 AM 30.2 °F 26.7 °F 30.2 °F 100% 29.84 in 10.0 mi NNE 3.5 mph - N/A   Clear
5:55 AM 32.0 °F - 30.2 °F 93% 29.84 in 10.0 mi Calm Calm - N/A   Clear
6:15 AM 30.2 °F 26.7 °F 30.2 °F 100% 29.84 in 10.0 mi ESE 3.5 mph - N/A   Clear
6:35 AM 28.4 °F - 26.6 °F 93% 29.84 in 10.0 mi Calm Calm - N/A   Clear
6:50 AM 30.2 °F - 28.4 °F 93% 29.84 in 15.0 mi Calm Calm - N/A   Scattered Clouds
7:58 AM 30.2 °F - 28.4 °F 93% 29.84 in 15.0 mi Calm Calm - N/A   Scattered Clouds
8:50 AM - - - N/A% 29.84 in 15.0 mi Calm Calm - N/A   Scattered Clouds
10:06 AM 42.8 °F 40.1 °F 37.4 °F 81% 29.81 in 15.0 mi SSE 4.6 mph - N/A   Mostly Cloudy
10:50 AM 41.0 °F 38.0 °F 35.6 °F 81% 29.81 in 15.0 mi West 4.6 mph - N/A   Mostly Cloudy
11:50 AM 44.6 °F 43.1 °F 35.6 °F 71% 29.80 in 15.0 mi West 3.5 mph - N/A   Mostly Cloudy
12:50 PM 44.6 °F - 35.6 °F 71% 29.78 in 15.0 mi Calm Calm - N/A   Mostly Cloudy
1:53 PM 50.0 °F - 28.4 °F 43% 29.75 in 15.0 mi SSW 3.5 mph - N/A   Mostly Cloudy
2:50 PM 46.4 °F 45.2 °F 33.8 °F 62% 29.74 in 15.0 mi NNE 3.5 mph - N/A   Overcast
3:53 PM 46.4 °F 44.3 °F 33.8 °F 62% 29.74 in 15.0 mi SSE 4.6 mph - N/A   Overcast
4:48 PM 46.4 °F 44.3 °F 39.2 °F 76% 29.71 in 15.0 mi NE 4.6 mph - N/A   Mostly Cloudy
5:50 PM 42.8 °F - 35.6 °F 76% 29.69 in 15.0 mi Calm Calm - N/A   Overcast
6:57 PM 44.6 °F - 37.4 °F 76% 29.65 in 15.0 mi Calm Calm - N/A   Overcast
7:57 PM 44.6 °F - 37.4 °F 76% 29.64 in 15.0 mi Calm Calm - N/A   Overcast
8:51 PM 42.8 °F 38.0 °F 39.2 °F 87% 29.64 in 10.0 mi ESE 8.1 mph - N/A Rain Light Rain
9:15 PM 42.8 °F 37.0 °F 37.4 °F 81% 29.63 in 10.0 mi SSE 10.4 mph - N/A   Overcast
9:35 PM 42.8 °F 36.6 °F 37.4 °F 81% 29.62 in 10.0 mi SE 11.5 mph - 0.01 in   Overcast
9:55 PM 42.8 °F 38.0 °F 37.4 °F 81% 29.63 in 10.0 mi ESE 8.1 mph - 0.01 in   Overcast
10:15 PM 42.8 °F 38.0 °F 37.4 °F 81% 29.62 in 10.0 mi East 8.1 mph - 0.01 in   Overcast
10:35 PM 42.8 °F 38.6 °F 37.4 °F 81% 29.63 in 10.0 mi South 6.9 mph - 0.04 in   Overcast
10:55 PM 42.8 °F 37.5 °F 37.4 °F 81% 29.63 in 7.0 mi SE 9.2 mph - 0.09 in   Overcast
11:15 PM 42.8 °F 39.3 °F 37.4 °F 81% 29.62 in 10.0 mi East 5.8 mph - 0.01 in   Overcast
11:35 PM 42.8 °F 41.1 °F 39.2 °F 87% 29.61 in 10.0 mi East 3.5 mph - 0.01 in   Overcast
11:55 PM 42.8 °F - 39.2 °F 87% 29.60 in 10.0 mi Calm Calm - 0.01 in   Overcast